TimeEDT,TemperatureF,Dew PointF,Humidity,Sea Level PressureIn,VisibilityMPH,Wind Direction,Wind SpeedMPH,Gust SpeedMPH,PrecipitationIn,Events,Conditions,WindDirDegrees,DateUTC
12:53 AM,53.1,48.9,86,29.90,10.0,Calm,Calm,-,N/A,,Clear,0,2012-10-16 04:53:00
1:53 AM,51.1,48.0,89,29.91,10.0,Calm,Calm,-,N/A,,Clear,0,2012-10-16 05:53:00
2:53 AM,48.0,46.0,93,29.92,10.0,Calm,Calm,-,N/A,,Clear,0,2012-10-16 06:53:00
3:53 AM,48.0,45.0,89,29.92,10.0,Calm,Calm,-,N/A,,Clear,0,2012-10-16 07:53:00
4:53 AM,46.9,45.0,93,29.93,10.0,Calm,Calm,-,N/A,,Clear,0,2012-10-16 08:53:00
5:53 AM,46.4,44.6,93,29.94,10.0,Calm,Calm,-,N/A,,Clear,0,2012-10-16 09:53:00
6:53 AM,46.9,44.1,90,29.96,10.0,Calm,Calm,-,N/A,,Clear,0,2012-10-16 10:53:00
7:53 AM,44.6,42.8,93,29.98,8.0,Calm,Calm,-,N/A,,Clear,0,2012-10-16 11:53:00
8:53 AM,54.0,48.9,83,29.99,10.0,Calm,Calm,-,N/A,,Clear,0,2012-10-16 12:53:00
9:53 AM,60.1,48.9,67,30.00,10.0,Calm,Calm,-,N/A,,Clear,0,2012-10-16 13:53:00
10:53 AM,64.0,46.9,54,29.99,10.0,East,5.8,-,N/A,,Clear,90,2012-10-16 14:53:00
11:53 AM,68.0,45.0,43,29.98,10.0,Variable,5.8,-,N/A,,Clear,0,2012-10-16 15:53:00
12:53 PM,69.1,44.1,40,29.97,10.0,NW,3.5,-,N/A,,Clear,310,2012-10-16 16:53:00
1:53 PM,70.0,43.0,38,29.94,10.0,Calm,Calm,-,N/A,,Clear,0,2012-10-16 17:53:00
2:53 PM,72.0,43.0,35,29.91,10.0,Variable,5.8,-,N/A,,Clear,0,2012-10-16 18:53:00
3:53 PM,73.0,39.9,30,29.90,10.0,North,4.6,-,N/A,,Clear,350,2012-10-16 19:53:00
4:53 PM,72.0,42.1,34,29.89,10.0,Calm,Calm,-,N/A,,Clear,0,2012-10-16 20:53:00
5:53 PM,66.9,52.0,59,29.89,10.0,Calm,Calm,-,N/A,,Clear,0,2012-10-16 21:53:00
6:53 PM,60.1,53.1,78,29.89,10.0,Calm,Calm,-,N/A,,Clear,0,2012-10-16 22:53:00
7:53 PM,55.9,51.1,84,29.88,10.0,Calm,Calm,-,N/A,,Clear,0,2012-10-16 23:53:00
8:53 PM,55.0,51.1,86,29.89,10.0,Calm,Calm,-,N/A,,Clear,0,2012-10-17 00:53:00
9:53 PM,51.1,48.9,92,29.91,10.0,SE,3.5,-,N/A,,Clear,140,2012-10-17 01:53:00
10:53 PM,52.0,50.0,93,29.91,10.0,Calm,Calm,-,N/A,,Clear,0,2012-10-17 02:53:00
11:53 PM,52.0,50.0,93,29.93,10.0,Calm,Calm,-,N/A,,Clear,0,2012-10-17 03:53:00